Warroad, MN

10:28 AM CST on December 07, 2016 (GMT -0600)
Warroad International-Carlson

Weather History for KRRT - November, 2013

Change the Weather History Date:

Sunday, November 24, 2013

  Actual Average Record
Temperature  
Mean Temperature 18 °F -  
Max Temperature 32 °F 25 °F 47 °F (1962)
Min Temperature 3 °F 7 °F -23 °F (1985)
Degree Days  
Heating Degree Days 48    
Moisture  
Dew Point 13 °F    
Average Humidity 75    
Maximum Humidity 86    
Minimum Humidity 62    
Precipitation  
Precipitation 0.00 in - - ()
Sea Level Pressure  
Sea Level Pressure 29.96 in    
Wind  
Wind Speed 11 mph (SSW)    
Max Wind Speed 18 mph    
Max Gust Speed 28 mph    
Visibility 10 miles    
Events      
Averages and records for this station are not official NWS values.
T = Trace of Precipitation, MM = Missing Value Source: NWS Daily Summary

Daily Weather History Graph

Daily Weather History Graph

Search for Another Location

Airport or City:

Trip Planner

Search our weather history database for the weather conditions in past years. The results will help you decide how hot, cold, wet, or windy it might be!

Date:

Astronomy

Nov. 24, 2013 Rise Set
Actual Time 7:44 AM CST 4:31 PM CST
Civil Twilight 7:08 AM CST 5:06 PM CST
Nautical Twilight 6:29 AM CST 5:46 PM CST
Astronomical Twilight 5:51 AM CST 6:23 PM CST
Moon 11:15 PM CST (11/24) 12:17 PM CST (11/24)
Length of Visible Light 9h 58m
Length of Day
8h 46m
Waning Gibbous, 60% of the Moon is Illuminated
Nov 24
Waning Gibbous
Nov 25
Last Quarter
Dec 2
New
Dec 9
First Quarter
Dec 17
Full

Hourly Weather History & Observations

Time (CST) Temp. Windchill Dew Point Humidity Pressure Visibility Wind Dir Wind Speed Gust Speed Precip Events Conditions
12:14 AM 3.2 °F -9.1 °F -2.2 °F 78% 30.50 in 10.0 mi South 6.9 mph - N/A   Scattered Clouds
12:34 AM 3.2 °F -10.3 °F -0.4 °F 85% 30.49 in 10.0 mi South 8.1 mph - N/A   Mostly Cloudy
12:54 AM 5.0 °F -5.6 °F -0.4 °F 78% 30.49 in 10.0 mi South 5.8 mph - N/A   Overcast
1:13 AM 5.0 °F -8.1 °F -0.4 °F 78% 30.47 in 10.0 mi South 8.1 mph - N/A   Mostly Cloudy
1:34 AM 6.8 °F -5.9 °F -0.4 °F 72% 30.45 in 10.0 mi South 8.1 mph - N/A   Overcast
1:54 AM 6.8 °F -6.9 °F 1.4 °F 79% 30.43 in 10.0 mi South 9.2 mph - N/A   Overcast
2:14 AM 6.8 °F -7.8 °F 1.4 °F 79% 30.42 in 10.0 mi South 10.4 mph - N/A   Overcast
2:34 AM 6.8 °F -6.9 °F 1.4 °F 79% 30.40 in 10.0 mi South 9.2 mph - N/A   Overcast
2:54 AM 8.6 °F -4.7 °F 1.4 °F 73% 30.39 in 10.0 mi South 9.2 mph - N/A   Overcast
3:14 AM 8.6 °F -2.6 °F 1.4 °F 73% 30.38 in 10.0 mi South 6.9 mph - N/A   Overcast
3:34 AM 8.6 °F -4.7 °F 3.2 °F 79% 30.37 in 10.0 mi South 9.2 mph - N/A   Overcast
3:54 AM 8.6 °F -5.5 °F 3.2 °F 79% 30.35 in 10.0 mi South 10.4 mph - N/A   Overcast
4:14 AM 10.4 °F -3.3 °F 3.2 °F 73% 30.33 in 10.0 mi South 10.4 mph - N/A   Scattered Clouds
4:33 AM 10.4 °F -5.4 °F 3.2 °F 73% 30.31 in 10.0 mi South 13.8 mph 17.3 mph N/A   Clear
4:54 AM 10.4 °F -5.4 °F 3.2 °F 73% 30.29 in 10.0 mi SSE 13.8 mph - N/A   Clear
5:14 AM 10.4 °F -5.4 °F 3.2 °F 73% 30.28 in 10.0 mi SSE 13.8 mph 18.4 mph N/A   Clear
5:33 AM 10.4 °F -5.4 °F 3.2 °F 73% 30.26 in 10.0 mi SSE 13.8 mph - N/A   Clear
5:54 AM 12.2 °F -3.1 °F 3.2 °F 67% 30.23 in 10.0 mi SSE 13.8 mph - N/A   Clear
6:14 AM 12.2 °F -2.5 °F 5.0 °F 73% 30.21 in 10.0 mi South 12.7 mph 18.4 mph N/A   Clear
6:34 AM 12.2 °F -3.7 °F 3.2 °F 67% 30.20 in 10.0 mi South 15.0 mph 20.7 mph N/A   Clear
6:53 AM 12.2 °F -3.7 °F 5.0 °F 73% 30.16 in 10.0 mi SSE 15.0 mph - N/A   Clear
7:14 AM 14.0 °F -0.8 °F 5.0 °F 67% 30.13 in 10.0 mi South 13.8 mph 23.0 mph N/A   Scattered Clouds
7:34 AM 14.0 °F -2.0 °F 5.0 °F 67% 30.11 in 10.0 mi South 16.1 mph - N/A   Scattered Clouds
7:53 AM 14.0 °F -0.2 °F 5.0 °F 67% 30.10 in 10.0 mi SSE 12.7 mph - N/A   Scattered Clouds
8:14 AM 14.0 °F -2.0 °F 5.0 °F 67% 30.07 in 10.0 mi SSE 16.1 mph - N/A   Clear
8:34 AM 15.8 °F 2.1 °F 5.0 °F 62% 30.06 in 10.0 mi SSE 12.7 mph - N/A   Clear
8:53 AM 15.8 °F 1.4 °F 6.8 °F 68% 30.04 in 10.0 mi SSE 13.8 mph 17.3 mph N/A   Clear
9:14 AM 15.8 °F 0.9 °F 6.8 °F 68% 30.02 in 10.0 mi South 15.0 mph 19.6 mph N/A   Clear
9:34 AM 17.6 °F 5.0 °F 8.6 °F 68% 29.99 in 10.0 mi South 11.5 mph 20.7 mph N/A   Clear
9:53 AM 17.6 °F 3.2 °F 8.6 °F 68% 29.97 in 10.0 mi South 15.0 mph 20.7 mph N/A   Clear
10:14 AM 17.6 °F 5.0 °F 8.6 °F 68% 29.96 in 10.0 mi South 11.5 mph 21.9 mph N/A   Clear
10:34 AM 19.4 °F 8.6 °F 10.4 °F 68% 29.94 in 10.0 mi South 9.2 mph - N/A   Clear
10:53 AM 19.4 °F 7.9 °F 10.4 °F 68% 29.91 in 10.0 mi South 10.4 mph 16.1 mph N/A   Clear
11:14 AM 19.4 °F 6.0 °F 12.2 °F 74% 29.88 in 10.0 mi SSW 13.8 mph 21.9 mph N/A   Clear
11:33 AM 21.2 °F 7.3 °F 12.2 °F 68% 29.87 in 10.0 mi SSW 16.1 mph 25.3 mph N/A   Clear
11:54 AM 21.2 °F 8.3 °F 12.2 °F 68% 29.87 in 10.0 mi SSW 13.8 mph 19.6 mph N/A   Clear
12:14 PM 21.2 °F 6.4 °F 14.0 °F 74% 29.84 in 10.0 mi SSW 18.4 mph 27.6 mph N/A   Clear
12:33 PM 23.0 °F 10.6 °F 14.0 °F 68% 29.84 in 10.0 mi SSW 13.8 mph 25.3 mph N/A   Clear
12:54 PM 23.0 °F 9.6 °F 14.0 °F 68% 29.84 in 10.0 mi SSW 16.1 mph 25.3 mph N/A   Clear
1:14 PM 23.0 °F 11.7 °F 15.8 °F 74% 29.82 in 10.0 mi SSW 11.5 mph 24.2 mph N/A   Clear
1:33 PM 23.0 °F 13.1 °F 15.8 °F 74% 29.84 in 10.0 mi SW 9.2 mph 19.6 mph N/A   Clear
1:54 PM 24.8 °F 14.0 °F 15.8 °F 69% 29.79 in 10.0 mi SSW 11.5 mph 17.3 mph N/A   Scattered Clouds
2:14 PM 24.8 °F 12.9 °F 17.6 °F 74% 29.79 in 10.0 mi SW 13.8 mph 18.4 mph N/A   Mostly Cloudy
2:33 PM 24.8 °F 11.9 °F 17.6 °F 74% 29.78 in 10.0 mi SSW 16.1 mph 23.0 mph N/A   Mostly Cloudy
2:54 PM 24.8 °F 12.9 °F 17.6 °F 74% 29.77 in 10.0 mi SSW 13.8 mph 25.3 mph N/A   Mostly Cloudy
3:14 PM 26.6 °F 14.7 °F 17.6 °F 69% 29.77 in 10.0 mi SW 15.0 mph - N/A   Mostly Cloudy
3:34 PM 26.6 °F 14.3 °F 19.4 °F 74% 29.77 in 10.0 mi SW 16.1 mph 20.7 mph N/A   Overcast
3:54 PM 26.6 °F 13.8 °F 19.4 °F 74% 29.76 in 10.0 mi SW 17.3 mph - N/A   Overcast
4:14 PM 26.6 °F 15.7 °F 19.4 °F 74% 29.75 in 10.0 mi SSW 12.7 mph 20.7 mph N/A   Overcast
4:34 PM 26.6 °F 14.7 °F 21.2 °F 80% 29.75 in 10.0 mi SSW 15.0 mph 18.4 mph N/A   Overcast
4:54 PM 28.4 °F 18.0 °F 21.2 °F 74% 29.74 in 10.0 mi SW 12.7 mph 19.6 mph N/A   Overcast
5:14 PM 28.4 °F 17.5 °F 21.2 °F 74% 29.73 in 10.0 mi SSW 13.8 mph 19.6 mph N/A   Overcast
5:34 PM 28.4 °F 18.0 °F 21.2 °F 74% 29.70 in 10.0 mi SSW 12.7 mph 21.9 mph N/A   Overcast
5:54 PM 28.4 °F 18.0 °F 23.0 °F 80% 29.70 in 10.0 mi SW 12.7 mph 21.9 mph N/A   Overcast
6:14 PM 30.2 °F 20.8 °F 23.0 °F 75% 29.70 in 10.0 mi SW 11.5 mph - N/A   Overcast
6:34 PM 30.2 °F 21.3 °F 23.0 °F 75% 29.69 in 10.0 mi SSW 10.4 mph 17.3 mph N/A   Overcast
6:54 PM 30.2 °F 21.3 °F 24.8 °F 80% 29.68 in 10.0 mi SSW 10.4 mph 16.1 mph N/A   Overcast
7:13 PM 30.2 °F 18.9 °F 24.8 °F 80% 29.66 in 10.0 mi SW 16.1 mph 20.7 mph N/A   Overcast
7:34 PM 30.2 °F 18.9 °F 24.8 °F 80% 29.64 in 10.0 mi SW 16.1 mph 21.9 mph N/A   Overcast
7:54 PM 30.2 °F 18.9 °F 24.8 °F 80% 29.63 in 10.0 mi SW 16.1 mph 21.9 mph N/A   Mostly Cloudy
8:13 PM 30.2 °F 20.8 °F 24.8 °F 80% 29.63 in 10.0 mi SW 11.5 mph 21.9 mph N/A   Mostly Cloudy
8:34 PM 32.0 °F 23.0 °F 24.8 °F 75% 29.63 in 10.0 mi SW 11.5 mph 18.4 mph N/A   Mostly Cloudy
8:54 PM 30.2 °F 19.8 °F 24.8 °F 80% 29.62 in 10.0 mi SW 13.8 mph 19.6 mph N/A   Scattered Clouds
9:13 PM 30.2 °F 20.2 °F 24.8 °F 80% 29.62 in 10.0 mi WSW 12.7 mph 19.6 mph N/A   Clear
9:34 PM 30.2 °F 19.3 °F 24.8 °F 80% 29.62 in 10.0 mi WSW 15.0 mph 20.7 mph N/A   Scattered Clouds
9:54 PM 30.2 °F 20.8 °F 24.8 °F 80% 29.62 in 10.0 mi WSW 11.5 mph 17.3 mph N/A   Clear
10:13 PM 30.2 °F 20.8 °F 24.8 °F 80% 29.62 in 10.0 mi WSW 11.5 mph 19.6 mph N/A   Clear
10:34 PM 30.2 °F 20.2 °F 24.8 °F 80% 29.62 in 10.0 mi WSW 12.7 mph 19.6 mph N/A   Mostly Cloudy
10:54 PM 30.2 °F 19.3 °F 26.6 °F 86% 29.62 in 10.0 mi West 15.0 mph 21.9 mph N/A   Overcast
11:13 PM 30.2 °F 19.8 °F 26.6 °F 86% 29.62 in 10.0 mi West 13.8 mph 23.0 mph N/A   Overcast
11:34 PM 30.2 °F 19.8 °F 26.6 °F 86% 29.62 in 10.0 mi West 13.8 mph - N/A   Overcast
11:54 PM 30.2 °F 20.2 °F 26.6 °F 86% 29.62 in 10.0 mi West 12.7 mph 18.4 mph N/A   Overcast